{"data":{"norad_id":51130,"intl_designator":"2022-005AC","name":"STARLINK-3395","alt_names":[],"object_type":"PAYLOAD","status":"ACTIVE","operator":null,"country":"US","launch_date":"2022-01-19","launch_site_code":"AFETR","launch_vehicle":null,"mission":null,"orbit_class":"UNKNOWN","rcs_meters":null,"size_class":null,"mass_kg":null,"dimensions":null,"purposes":["comms"],"wikipedia_slug":null,"has_3d_model":false,"image_url":null,"decayed_at":null,"tle_current":{"epoch":"2026-09-20T01:15:59.937984Z","epoch_age_seconds":86835,"freshness":"FRESH","line1":"1 51130U 22005AC  26263.05277706 -.00000095  00000+0  83394-5 0  9998","line2":"2 51130  53.1611 139.8909 0001278  81.6318 278.4829 15.34386977258157","mean_motion":15.34386977,"eccentricity":0.0001278,"inclination_deg":53.1611,"raan_deg":139.8909,"arg_perigee_deg":81.6318,"mean_anomaly_deg":278.4829,"bstar":8.3394e-6,"rev_number":25815,"period_min":93.848554607486,"perigee_km":461.86768325185,"apogee_km":463.61621191085,"semimajor_km":6840.8789475813,"source":"CELESTRAK","updated_at":"2026-09-20T09:00:39.588942Z"}}}